Theta_e
312 312 313 313 312 313 314 314 312 311 309 307 307 307 308 309 310 312 312 312 312 312 312 313 313 314 323 332 333 340 330 337 346 342 338 342 343 342 341 338 338 339 343 350 350 351 352
312 312 312 312 311 311 310 309 310 308 306 306 307 307 307 308 309 310 312 312 312 312 313 313 313 314 329 337 332 344 346 347 343 342 338 341 342 341 340 338 336 336 345 351 351 351 351
312 312 312 312 313 312 311 310 309 307 306 306 306 306 307 307 308 311 312 312 312 313 314 314 313 316 326 330 336 342 344 343 340 340 337 339 340 340 339 336 335 336 342 350 350 352 352
312 312 312 313 314 313 312 311 309 306 306 306 306 306 307 307 310 312 312 312 313 315 314 313 314 322 332 326 334 340 335 333 334 338 336 337 338 338 336 334 335 335 338 341 347 351 350
312 313 313 314 312 310 310 309 308 308 308 308 308 308 307 309 311 313 312 314 316 315 313 314 325 326 330 320 327 328 330 333 334 335 335 335 334 337 336 335 336 335 337 337 337 348 349
313 313 314 314 314 312 312 311 310 310 311 311 310 309 308 309 310 312 313 316 318 317 318 319 323 328 325 328 326 326 328 329 330 332 333 336 337 338 336 334 335 334 334 333 332 337 346
314 314 314 314 312 311 311 310 311 311 312 312 311 310 309 309 310 312 316 325 328 326 323 321 322 323 324 325 324 325 328 329 331 335 338 337 339 339 334 330 328 330 331 332 330 336 340
315 313 313 313 311 310 310 310 311 311 312 312 312 311 309 309 310 313 321 329 325 323 325 324 325 325 324 324 327 325 325 329 335 337 336 337 338 332 330 327 327 329 333 332 329 328 334
314 315 315 315 311 311 311 310 310 311 312 312 313 312 310 309 312 319 323 325 321 321 328 326 324 324 325 326 328 327 326 327 334 335 334 337 333 330 328 327 327 330 331 328 327 327 329
315 316 316 316 315 314 313 312 310 311 312 313 314 312 310 310 319 319 325 322 319 320 326 324 322 325 325 326 325 324 325 328 329 333 332 332 330 329 328 329 328 332 325 326 326 326 327
316 316 316 316 316 316 315 313 310 311 312 313 314 313 311 309 317 324 322 318 320 323 325 322 324 326 326 324 325 324 324 328 328 329 330 328 327 329 329 330 327 330 326 326 326 326 326
316 316 316 316 316 316 316 315 311 311 312 313 315 314 312 312 314 320 318 320 323 331 332 323 325 326 325 324 325 324 326 327 327 327 327 327 325 326 328 325 325 325 326 327 327 326 328
316 316 315 315 316 316 316 315 312 311 312 314 315 315 313 311 321 317 317 324 326 331 330 327 324 326 325 324 324 324 324 325 325 325 326 325 327 326 324 327 326 326 328 328 329 328 330
316 316 315 315 316 316 316 315 313 312 313 314 316 315 315 313 315 315 323 327 326 329 331 328 325 325 325 325 325 324 325 325 325 325 326 327 327 326 325 327 328 327 327 328 331 328 328
315 315 315 315 316 316 316 315 313 312 313 315 316 316 316 317 314 316 328 329 324 332 331 327 326 326 325 325 325 325 326 326 325 325 327 328 328 325 325 325 326 327 328 327 327 328 327
315 315 316 316 317 316 316 315 314 312 313 317 319 319 322 320 316 319 329 327 324 330 329 326 327 326 325 326 325 326 326 326 326 326 327 328 330 327 326 327 326 327 326 328 329 331 331
316 316 316 316 317 316 316 316 314 312 316 318 321 323 323 317 318 328 328 326 325 329 328 328 328 326 327 326 326 327 326 326 326 325 326 327 329 329 330 330 331 331 332 329 328 329 329
317 317 317 316 316 317 317 316 315 314 317 320 325 326 319 317 325 328 329 326 318 326 325 327 328 327 327 326 327 327 327 328 325 326 326 327 328 331 331 330 330 331 331 330 332 333 333
317 317 317 317 317 317 317 317 316 314 317 320 329 328 318 320 323 325 324 324 323 324 325 328 329 329 328 327 328 327 327 328 325 326 328 328 329 332 331 331 331 332 331 331 330 329 329
316 317 317 317 317 317 318 318 317 315 317 318 331 327 322 322 324 324 323 323 322 323 324 326 331 330 331 330 333 329 328 331 326 328 331 329 329 330 332 332 332 333 332 331 330 330 330
317 317 317 317 317 317 318 318 318 316 319 318 329 331 325 322 323 324 324 326 324 324 326 329 333 331 332 333 334 333 333 332 331 333 330 329 331 331 331 331 330 331 331 331 331 330 330
319 318 317 316 317 317 317 318 318 317 318 324 332 333 328 328 322 324 322 327 327 325 328 330 332 331 332 334 333 335 334 333 333 332 332 331 334 333 332 331 332 332 331 331 330 330 330
318 317 317 317 316 317 318 318 318 318 319 325 324 324 329 325 329 324 326 328 329 327 326 329 330 331 332 333 333 334 333 333 334 334 333 333 335 336 335 333 333 334 332 332 331 331 331
319 317 315 316 318 317 317 317 318 318 317 319 322 324 331 332 333 332 330 329 330 330 330 329 330 332 331 329 330 330 331 331 331 331 333 335 335 335 335 336 337 333 332 332 332 332 332
317 315 314 315 318 318 317 317 318 318 318 319 321 323 327 331 331 330 329 330 329 329 329 329 327 329 328 331 332 333 333 333 332 330 330 332 334 334 335 335 333 332 331 332 332 332 332
315 315 314 314 315 316 318 319 318 319 318 320 321 319 324 329 329 325 328 328 330 329 329 328 326 325 327 332 333 337 336 334 335 333 329 331 333 335 336 335 336 333 332 334 333 335 332
311 311 311 312 313 315 317 318 318 317 319 319 321 318 322 325 326 325 329 328 329 330 331 329 327 326 327 332 333 334 333 334 334 334 334 334 335 334 334 334 332 329 331 333 332 330 336
306 307 308 310 311 312 315 317 317 317 318 318 319 316 319 325 324 324 324 326 327 330 331 331 329 328 330 332 332 332 333 333 334 333 334 335 335 333 333 333 332 332 333 331 335 337 337
306 306 307 308 310 311 312 314 315 316 317 318 322 320 317 320 323 321 320 320 321 323 327 328 331 332 331 332 331 331 331 332 332 333 330 330 329 330 329 332 337 336 336 337 335 337 337
Wind_Speed
11 11 12 12 12 13 13 13 13 13 12 12 11 10 9 8 7 7 9 10 9 9 9 7 8 8 4 6 6 3 5 7 4 3 5 9 14 11 13 10 6 11 6 3 6 5 6
12 11 11 12 12 13 13 13 13 12 12 11 11 10 9 9 8 9 8 8 9 9 8 6 6 6 5 6 3 5 7 7 3 3 5 8 9 9 9 9 8 9 5 6 6 6 6
12 12 12 12 13 12 13 13 13 12 12 11 11 11 11 10 11 9 8 8 9 9 6 4 5 3 6 6 3 6 9 5 4 3 4 6 8 10 11 9 11 5 4 8 4 6 4
12 13 12 12 13 12 12 12 11 12 11 12 12 12 12 11 10 8 8 9 8 5 3 3 3 2 1 4 5 7 6 5 5 5 4 7 6 6 6 10 3 3 4 6 7 4 4
12 12 12 13 12 13 13 12 12 12 12 12 13 13 11 10 8 9 10 8 2 0 1 2 2 4 6 3 5 7 7 1 3 3 2 5 4 5 6 9 4 5 9 8 8 2 1
12 12 13 13 13 13 14 13 13 12 13 14 13 11 9 9 9 9 8 1 1 1 1 1 4 5 6 4 5 4 7 5 3 4 4 5 4 8 5 9 6 4 5 7 10 7 2
13 13 13 12 13 13 13 13 13 14 14 14 12 10 9 9 9 8 3 3 5 5 7 4 3 3 3 1 3 6 5 8 7 6 10 2 8 5 4 5 6 2 2 3 5 6 6
13 13 14 14 13 14 15 15 14 14 15 16 12 11 8 8 7 5 2 4 5 5 4 6 5 6 5 2 6 7 8 9 8 12 5 9 10 3 3 4 4 2 3 2 3 3 4
13 14 14 15 14 14 16 16 16 16 16 17 12 10 7 7 6 1 1 3 2 2 5 7 4 6 4 7 7 11 12 7 9 9 9 10 6 1 4 4 5 4 7 7 6 5 6
14 14 14 15 15 16 17 16 17 18 18 18 13 9 5 6 2 2 2 1 8 5 5 10 8 7 7 5 8 2 8 6 7 11 5 8 4 6 7 6 6 8 3 4 8 8 5
14 14 15 15 15 16 17 19 20 19 18 17 13 8 4 3 3 4 3 7 2 4 6 13 10 6 7 10 7 8 5 7 9 9 8 5 7 9 8 2 3 5 3 6 9 9 7
14 15 16 15 15 15 18 20 20 20 18 17 13 8 4 3 4 2 4 2 3 6 4 10 10 13 14 10 7 8 10 4 2 5 7 5 1 5 5 1 1 1 10 8 5 5 5
15 16 16 16 16 16 18 19 21 21 19 18 13 8 6 5 1 2 3 5 6 8 8 9 13 15 17 11 8 12 14 13 8 9 11 11 12 5 6 9 6 9 13 2 3 4 6
16 17 16 17 17 16 18 20 22 21 20 18 11 7 7 10 4 2 6 6 8 1 13 6 10 14 17 13 9 12 14 13 8 8 11 10 8 8 4 6 1 2 8 4 2 4 3
17 16 16 17 17 17 19 21 23 22 20 17 8 2 3 3 9 6 7 9 3 4 6 10 14 15 13 16 5 13 14 13 12 13 5 6 6 5 3 2 6 7 2 7 7 4 5
16 16 16 17 18 18 20 22 25 25 21 12 2 4 4 3 7 9 8 12 3 2 3 8 12 16 17 19 12 13 13 12 12 11 10 4 12 7 7 6 7 6 3 6 2 3 5
15 15 16 18 19 18 21 24 25 27 21 4 4 4 2 5 7 6 10 10 5 5 4 8 11 12 15 19 15 16 15 8 14 10 9 4 5 8 4 4 6 5 6 1 4 4 5
14 15 16 18 19 20 23 26 27 28 15 4 4 4 4 6 8 8 12 7 2 6 6 7 6 8 15 17 14 14 10 2 8 11 9 6 5 11 7 4 2 3 3 5 5 1 2
13 15 16 18 21 22 24 26 28 28 11 4 3 2 6 4 8 9 7 10 5 5 6 6 9 9 8 15 13 11 8 4 8 11 9 10 6 8 9 9 6 8 6 3 6 4 10
13 14 16 18 20 23 24 27 29 30 7 2 3 5 4 6 4 9 10 12 11 6 9 5 4 7 11 12 5 11 11 7 8 8 5 8 9 10 7 4 6 9 9 7 8 8 4
14 14 15 18 20 23 24 25 29 30 8 1 4 2 2 8 11 9 6 1 11 8 6 5 7 12 13 9 10 9 12 11 8 7 7 8 11 6 2 2 5 7 8 8 9 7 7
14 15 15 16 18 21 23 24 28 28 11 3 3 3 4 3 6 13 8 10 11 10 5 8 7 12 9 10 10 13 11 11 9 10 10 9 3 7 7 5 7 10 10 11 11 6 8
12 14 15 16 17 18 21 23 25 28 10 4 3 2 4 6 8 11 10 12 8 6 9 9 3 8 11 5 4 6 4 5 8 12 11 11 7 9 11 6 7 13 15 14 13 11 9
10 12 15 16 15 16 18 20 20 23 20 5 6 5 4 6 7 7 3 6 10 10 9 4 6 8 5 9 12 11 10 9 8 5 8 8 9 5 9 5 15 14 3 7 13 14 13
8 11 13 15 13 14 16 16 18 19 20 4 7 5 3 5 2 6 6 5 7 9 9 10 3 2 13 10 8 9 8 6 6 3 4 5 8 6 8 12 15 8 6 9 13 16 15
10 12 12 12 13 13 13 13 16 17 18 6 4 6 4 5 3 3 4 2 4 8 9 6 4 9 6 7 7 10 8 9 8 8 2 5 4 7 6 12 13 10 6 4 7 16 13
11 11 11 11 12 13 12 12 13 15 16 12 3 8 5 4 1 4 3 4 3 4 3 7 8 9 8 9 8 8 6 3 8 9 8 9 7 11 10 11 10 4 6 3 11 7 6
11 11 11 11 12 12 12 11 12 13 15 13 4 5 6 4 6 3 2 4 3 2 3 4 5 5 7 9 7 5 5 6 5 1 6 8 7 8 10 13 18 6 5 10 3 2 5
12 12 11 10 11 11 12 12 11 11 12 10 4 5 7 6 6 4 9 11 8 5 6 1 4 2 4 3 2 2 4 4 5 8 5 6 8 6 5 3 2 2 6 3 2 4 4
Wind_Direction
352 353 350 351 348 348 346 344 343 343 343 344 344 345 345 344 339 332 329 326 327 327 328 331 326 333 314 218 68 32 152 149 171 230 321 353 17 8 31 9 354 28 39 91 111 142 141
356 354 348 349 349 347 343 344 343 347 343 340 340 341 339 333 328 323 325 321 320 320 319 325 330 329 262 198 27 129 154 169 213 267 2 357 5 353 353 358 4 350 47 109 151 142 145
354 357 346 351 345 344 343 343 341 344 339 338 338 338 335 327 321 319 318 314 314 312 308 320 329 332 257 68 132 142 153 190 223 254 332 19 341 343 341 346 354 341 97 140 112 161 123
358 350 351 346 345 344 345 343 342 343 342 340 336 333 331 324 323 320 316 315 313 304 306 319 325 293 112 103 138 161 178 192 228 234 288 334 321 302 324 320 267 289 205 107 65 168 118
357 357 356 354 350 353 352 352 357 352 344 337 331 326 328 328 329 326 321 320 339 349 314 323 283 262 152 158 206 194 197 260 179 215 272 285 277 325 291 290 197 29 75 66 92 80 80
7 3 4 359 358 360 358 3 354 347 337 333 332 334 332 329 332 332 328 354 117 129 232 262 263 234 170 159 148 160 193 209 227 156 188 220 266 280 267 324 53 23 63 78 47 38 339
9 6 6 4 6 6 4 359 349 345 342 339 333 326 328 327 330 337 315 274 208 177 212 328 94 335 125 138 199 189 180 194 219 224 241 130 279 255 35 354 344 352 73 48 74 33 313
11 7 7 4 7 6 360 354 348 345 343 337 329 320 325 322 329 342 94 278 41 358 226 217 259 265 253 290 190 183 181 210 210 236 221 236 241 98 318 287 301 201 258 58 135 26 296
13 10 9 5 5 2 360 358 354 347 343 337 328 319 322 319 320 114 230 94 16 323 256 164 210 228 177 204 214 180 197 215 230 230 233 265 76 112 242 222 238 193 357 5 346 314 227
13 10 9 7 4 2 360 358 354 350 343 340 330 318 318 324 147 175 166 194 309 208 237 156 193 178 177 229 201 127 209 231 210 245 224 257 143 243 239 251 265 293 51 326 320 306 315
13 8 6 5 2 2 360 358 354 349 346 341 329 313 300 238 310 216 103 326 151 212 226 141 149 122 154 206 110 163 165 202 233 189 227 102 188 205 238 311 302 20 329 319 308 279 260
11 7 4 360 358 359 359 358 352 349 344 340 327 302 286 288 239 235 328 147 214 227 207 162 154 177 177 193 175 132 180 206 7 195 223 276 147 265 284 119 296 238 267 237 229 244 213
4 3 1 358 355 356 356 356 350 346 343 338 322 287 241 205 102 224 302 209 215 245 142 163 176 177 192 180 173 187 185 189 198 193 207 197 216 192 236 242 197 239 247 261 237 195 59
358 357 357 357 354 354 353 351 349 347 343 337 319 282 252 219 254 271 215 217 236 311 182 159 176 183 194 176 190 186 184 191 207 257 159 189 169 196 150 260 93 6 325 6 331 358 39
351 352 355 355 356 355 354 351 350 346 342 339 325 275 221 220 225 235 226 213 237 203 153 171 164 179 192 182 206 187 201 204 190 213 197 174 102 113 191 166 289 134 248 9 295 174 250
350 353 355 357 357 359 356 353 349 346 340 336 291 225 166 230 185 210 225 242 256 239 245 207 186 191 183 185 196 202 186 198 190 208 257 146 123 125 140 173 65 335 50 254 175 311 318
355 358 358 1 0 4 0 356 351 346 339 327 215 221 77 160 163 212 220 226 274 232 241 215 215 193 199 183 206 199 178 141 200 172 218 228 209 151 192 228 143 165 187 127 296 314 320
3 1 3 3 1 2 4 358 353 351 348 155 260 217 135 159 196 210 227 220 346 249 208 235 271 233 209 181 197 188 175 218 175 177 187 212 236 170 136 99 74 315 57 286 322 76 182
359 359 1 1 360 360 6 1 356 357 3 310 231 90 171 228 213 207 206 241 255 249 210 200 212 223 207 185 193 192 190 117 176 189 190 186 224 152 178 176 189 227 172 299 294 276 274
352 353 356 358 358 358 2 3 359 355 331 317 246 181 152 215 285 270 207 227 220 206 257 261 252 194 170 173 214 183 180 160 178 213 329 206 234 226 211 218 181 194 210 224 289 291 308
338 344 347 349 353 355 357 3 0 359 351 285 222 205 14 191 212 225 216 259 221 218 212 233 206 221 190 174 174 176 160 148 174 160 194 233 224 237 283 161 209 242 228 220 265 293 273
325 331 337 342 347 351 355 0 1 3 352 256 290 284 178 274 223 205 189 223 236 223 234 195 246 192 203 188 201 175 174 180 172 183 183 208 191 207 197 191 233 249 251 257 251 268 267
320 322 328 333 338 347 352 357 4 6 19 320 5 264 280 142 196 208 218 237 236 245 231 258 265 214 200 112 96 133 146 159 156 173 184 201 172 209 235 199 248 251 251 248 248 235 259
311 320 326 325 332 339 347 352 3 9 14 339 0 294 265 199 219 208 221 236 243 230 255 228 233 243 94 141 124 119 116 111 127 152 193 192 211 213 260 180 239 260 12 279 267 251 257
298 318 326 328 327 330 338 348 357 5 8 331 346 314 304 264 241 191 228 257 258 230 233 249 195 356 160 174 152 147 158 161 125 86 153 229 205 213 238 232 252 224 224 239 241 255 248
300 307 321 330 329 328 333 346 352 358 3 6 330 335 289 299 158 359 283 293 282 208 173 183 156 182 188 200 190 201 185 198 186 163 203 184 241 251 195 256 264 288 41 56 282 263 233
305 309 319 324 328 324 329 336 344 350 357 360 304 354 287 280 104 310 291 344 317 247 220 153 154 180 227 192 197 211 192 290 180 195 182 188 221 230 231 249 270 289 130 157 234 280 104
318 310 307 319 322 323 329 331 338 344 351 4 311 345 335 295 287 258 293 293 293 272 236 113 184 211 190 210 216 176 215 186 183 155 194 208 225 234 244 274 266 121 151 233 358 111 149
339 336 323 314 313 321 329 334 334 336 340 3 301 336 316 258 319 292 269 264 269 320 319 167 1 69 31 198 232 140 166 177 218 221 197 238 237 287 227 352 79 201 274 323 271 170 166